,,Stat5,,Stat1,,Stat2,,Stat3,,Stat4,,Wind1,,Wind1,
time,status,PA1M_AVG,status,PR1M_SUM,status,RH1M_AVG,status,SR1M_AVG,status,TA1M_AVG,status,W1dAve1m,status,W1sAve1m,
2001-08-10, 00:00:01,VALID,919.665,VALID,0,VALID,88.5304,VALID,0,VALID,20.5307,VALID,3,VALID,0.620877,
2001-08-10, 00:01:01,VALID,919.665,VALID,0,VALID,88.7351,VALID,0.0169808,VALID,20.5431,VALID,27,VALID,0.498944,
2001-08-10, 00:02:01,VALID,919.684,VALID,0,VALID,88.3702,VALID,0,VALID,20.5404,VALID,21,VALID,0.733319,
2001-08-10, 00:03:01,VALID,919.686,VALID,0,VALID,88.2303,VALID,-0.0169808,VALID,20.5468,VALID,356,VALID,0.302885,
2001-08-10, 00:04:01,VALID,919.68,VALID,0,VALID,87.9632,VALID,0,VALID,20.5659,VALID,356,VALID,0.000844595,
2001-08-10, 00:05:01,VALID,919.705,VALID,0,VALID,88.5215,VALID,0,VALID,20.5786,VALID,356,VALID,0.053125,
2001-08-10, 00:06:00,VALID,919.699,VALID,0,VALID,89.0645,VALID,0,VALID,20.5883,VALID,356,VALID,0.0142912,
2001-08-10, 00:07:01,VALID,919.704,VALID,0,VALID,88.6359,VALID,0,VALID,20.5759,VALID,356,VALID,0.130551,
2001-08-10, 00:08:01,VALID,919.714,VALID,0,VALID,87.8145,VALID,0,VALID,20.5592,VALID,351,VALID,0.182155,
2001-08-10, 00:09:01,VALID,919.716,VALID,0,VALID,88.2138,VALID,0,VALID,20.5756,VALID,349,VALID,0.0240234,
2001-08-10, 00:10:01,VALID,919.716,VALID,0,VALID,88.5253,VALID,0.0169808,VALID,20.5826,VALID,349,VALID,0,
2001-08-10, 00:11:00,VALID,919.709,VALID,0,VALID,88.9449,VALID,0.0169808,VALID,20.5428,VALID,349,VALID,0,
2001-08-10, 00:12:01,VALID,919.702,VALID,0,VALID,88.5609,VALID,0,VALID,20.4919,VALID,1,VALID,0.2625,
2001-08-10, 00:13:01,VALID,919.702,VALID,0,VALID,88.5774,VALID,0,VALID,20.4822,VALID,9,VALID,0.276476,
2001-08-10, 00:14:01,VALID,919.696,VALID,0,VALID,88.627,VALID,0,VALID,20.4728,VALID,13,VALID,0.375868,
2001-08-10, 00:15:01,VALID,919.696,VALID,0,VALID,88.786,VALID,0.0169808,VALID,20.4144,VALID,15,VALID,0.405107,
2001-08-10, 00:16:01,VALID,919.691,VALID,0,VALID,88.992,VALID,0,VALID,20.3592,VALID,23,VALID,0.662373,
2001-08-10, 00:17:01,VALID,919.703,VALID,0,VALID,89.4828,VALID,0,VALID,20.2822,VALID,23,VALID,0.919202,
2001-08-10, 00:18:00,VALID,919.698,VALID,0,VALID,90.022,VALID,0,VALID,20.1917,VALID,24,VALID,0.93236,
2001-08-10, 00:19:01,VALID,919.709,VALID,0,VALID,90.1695,VALID,0.0169808,VALID,20.1206,VALID,24,VALID,0.731898,
2001-08-10, 00:20:01,VALID,919.699,VALID,0,VALID,90.0589,VALID,0,VALID,20.0911,VALID,19,VALID,0.673725,
2001-08-10, 00:21:01,VALID,919.681,VALID,0,VALID,90.2165,VALID,0,VALID,20.0819,VALID,20,VALID,0.511102,
2001-08-10, 00:22:01,VALID,919.668,VALID,0,VALID,90.2725,VALID,0,VALID,20.0585,VALID,20,VALID,0.439887,
2001-08-10, 00:23:01,VALID,919.653,VALID,0,VALID,90.4798,VALID,0,VALID,20.0528,VALID,18,VALID,0.683066,
2001-08-10, 00:24:01,VALID,919.639,VALID,0,VALID,90.5815,VALID,0.0169808,VALID,20.0332,VALID,12,VALID,0.622991,
2001-08-10, 00:25:01,VALID,919.632,VALID,0,VALID,89.9024,VALID,0,VALID,20.0071,VALID,8,VALID,0.811883,
2001-08-10, 00:26:01,VALID,919.622,VALID,0,VALID,89.6227,VALID,0,VALID,20.059,VALID,6,VALID,0.634291,
2001-08-10, 00:27:01,VALID,919.615,VALID,0,VALID,89.2361,VALID,0,VALID,20.094,VALID,7,VALID,0.414679,
2001-08-10, 00:28:01,VALID,919.609,VALID,0,VALID,88.9602,VALID,-0.0169808,VALID,20.1433,VALID,1,VALID,0.214105,
2001-08-10, 00:29:01,VALID,919.605,VALID,0,VALID,88.6347,VALID,0,VALID,20.1917,VALID,342,VALID,0.238086,
2001-08-10, 00:30:01,VALID,919.599,VALID,0,VALID,88.0726,VALID,0,VALID,20.266,VALID,341,VALID,0.0139803,
2001-08-10, 00:31:01,VALID,919.583,VALID,0,VALID,88.1883,VALID,0,VALID,20.3209,VALID,341,VALID,0,
2001-08-10, 00:32:01,VALID,919.575,VALID,0,VALID,88.3791,VALID,0,VALID,20.3406,VALID,341,VALID,0,
2001-08-10, 00:33:01,VALID,919.564,VALID,0,VALID,88.0777,VALID,-0.0339617,VALID,20.3306,VALID,341,VALID,0,
2001-08-10, 00:34:01,VALID,919.558,VALID,0,VALID,88.168,VALID,-0.0169808,VALID,20.3207,VALID,341,VALID,0.021829,
2001-08-10, 00:35:01,VALID,919.554,VALID,0,VALID,88.2748,VALID,-0.0169808,VALID,20.3115,VALID,360,VALID,0.16582,
2001-08-10, 00:36:01,VALID,919.528,VALID,0,VALID,88.7071,VALID,0,VALID,20.2822,VALID,37,VALID,0.303085,
2001-08-10, 00:37:01,VALID,919.536,VALID,0,VALID,88.2138,VALID,0,VALID,20.2372,VALID,37,VALID,0.210321,
2001-08-10, 00:38:01,VALID,919.515,VALID,0,VALID,88.1158,VALID,0,VALID,20.2111,VALID,37,VALID,0.13713,
2001-08-10, 00:39:01,VALID,919.51,VALID,0,VALID,88.4617,VALID,0,VALID,20.2113,VALID,37,VALID,0,
2001-08-10, 00:40:00,VALID,919.503,VALID,0,VALID,88.3104,VALID,0,VALID,20.2051,VALID,40,VALID,0.135691,
2001-08-10, 00:41:00,VALID,919.505,VALID,0,VALID,88.599,VALID,-0.0339617,VALID,20.1949,VALID,43,VALID,0.326069,
2001-08-10, 00:42:00,VALID,919.484,VALID,0,VALID,89.4052,VALID,0,VALID,20.1761,VALID,44,VALID,0.433066,
2001-08-10, 00:43:00,VALID,919.487,VALID,0,VALID,89.8083,VALID,0,VALID,20.1303,VALID,45,VALID,0.479384,
2001-08-10, 00:44:00,VALID,919.485,VALID,0,VALID,89.6252,VALID,-0.0169808,VALID,20.0692,VALID,46,VALID,0.349609,
2001-08-10, 00:45:00,VALID,919.471,VALID,0,VALID,89.3887,VALID,-0.0169808,VALID,20.0332,VALID,46,VALID,0.221608,
2001-08-10, 00:46:00,VALID,919.471,VALID,0,VALID,89.2705,VALID,0,VALID,20.0272,VALID,46,VALID,0.126056,
2001-08-10, 00:47:00,VALID,919.466,VALID,0,VALID,89.3646,VALID,0,VALID,20.0203,VALID,46,VALID,0,
2001-08-10, 00:48:00,VALID,919.462,VALID,0,VALID,89.535,VALID,0,VALID,20.0379,VALID,46,VALID,0,
2001-08-10, 00:49:00,VALID,919.439,VALID,0,VALID,89.7778,VALID,0,VALID,20.0339,VALID,46,VALID,0,
2001-08-10, 00:50:00,VALID,919.43,VALID,0,VALID,89.5718,VALID,-0.0169808,VALID,20.0536,VALID,46,VALID,0,
2001-08-10, 00:51:00,VALID,919.41,VALID,0,VALID,88.5266,VALID,-0.0339617,VALID,20.0595,VALID,34,VALID,0,
2001-08-10, 00:52:00,VALID,919.395,VALID,0,VALID,88.112,VALID,-0.0339617,VALID,20.102,VALID,33,VALID,0,
2001-08-10, 00:53:00,VALID,919.385,VALID,0,VALID,88.9449,VALID,-0.0169808,VALID,20.137,VALID,33,VALID,0,
2001-08-10, 00:54:00,VALID,919.378,VALID,0,VALID,89.5439,VALID,-0.0339617,VALID,20.1728,VALID,33,VALID,0,
2001-08-10, 00:55:00,VALID,919.391,VALID,0,VALID,89.7677,VALID,-0.0169808,VALID,20.183,VALID,32,VALID,0.0746299,
2001-08-10, 00:56:00,VALID,919.398,VALID,0,VALID,88.3931,VALID,-0.0339617,VALID,20.1472,VALID,22,VALID,0.355574,
2001-08-10, 00:57:00,VALID,919.407,VALID,0,VALID,88.8775,VALID,-0.0169808,VALID,20.154,VALID,37,VALID,0.0400905,
2001-08-10, 00:58:00,VALID,919.419,VALID,0,VALID,89.0797,VALID,0,VALID,20.1281,VALID,37,VALID,0.0876267,
2001-08-10, 00:59:00,VALID,919.415,VALID,0,VALID,88.4732,VALID,-0.0339617,VALID,20.0829,VALID,37,VALID,0.0449219,
2001-08-10, 01:00:00,VALID,919.398,VALID,0,VALID,88.9602,VALID,-0.0509425,VALID,20.06,VALID,37,VALID,0.0298109,
2001-08-10, 01:01:00,VALID,919.393,VALID,0,VALID,89.0021,VALID,0,VALID,20.0277,VALID,37,VALID,0,
2001-08-10, 01:02:00,VALID,919.385,VALID,0,VALID,89.1878,VALID,-0.0169808,VALID,19.9984,VALID,37,VALID,0,
2001-08-10, 01:03:00,VALID,919.357,VALID,0,VALID,89.1954,VALID,-0.0339617,VALID,19.9895,VALID,37,VALID,0,
2001-08-10, 01:04:00,VALID,919.359,VALID,0,VALID,88.9004,VALID,-0.0169808,VALID,19.986,VALID,37,VALID,0,
2001-08-10, 01:05:00,VALID,919.359,VALID,0,VALID,88.9119,VALID,-0.0509425,VALID,19.9733,VALID,37,VALID,0,
2001-08-10, 01:06:00,VALID,919.375,VALID,0,VALID,89.2794,VALID,-0.0339617,VALID,19.9795,VALID,37,VALID,0,
2001-08-10, 01:07:00,VALID,919.365,VALID,0,VALID,89.8986,VALID,0.0849042,VALID,19.9942,VALID,37,VALID,0,
2001-08-10, 01:08:00,VALID,919.36,VALID,0,VALID,90.0868,VALID,0.0509425,VALID,19.9522,VALID,37,VALID,0.0518092,
2001-08-10, 01:09:00,VALID,919.352,VALID,0,VALID,89.8999,VALID,0.101885,VALID,19.8746,VALID,37,VALID,0.241992,
2001-08-10, 01:10:00,VALID,919.347,VALID,0,VALID,89.9953,VALID,0.0849042,VALID,19.7775,VALID,37,VALID,0.184827,
2001-08-10, 01:11:00,VALID,919.343,VALID,0,VALID,90.4696,VALID,0.101885,VALID,19.7196,VALID,37,VALID,0.0318668,
2001-08-10, 01:12:00,VALID,919.324,VALID,0,VALID,90.3106,VALID,0.0679233,VALID,19.6774,VALID,37,VALID,0,
2001-08-10, 01:13:00,VALID,919.325,VALID,0,VALID,90.3411,VALID,0.101885,VALID,19.6679,VALID,37,VALID,0,
2001-08-10, 01:14:00,VALID,919.317,VALID,0,VALID,90.3704,VALID,0.0169808,VALID,19.6883,VALID,37,VALID,0,
2001-08-10, 01:15:00,VALID,919.315,VALID,0,VALID,90.2509,VALID,-0.0169808,VALID,19.7017,VALID,37,VALID,0,
2001-08-10, 01:16:00,VALID,919.314,VALID,0,VALID,90.42,VALID,-0.0169808,VALID,19.7437,VALID,37,VALID,0,
2001-08-10, 01:17:00,VALID,919.312,VALID,0,VALID,90.4429,VALID,0,VALID,19.7892,VALID,37,VALID,0,
2001-08-10, 01:18:00,VALID,919.313,VALID,0,VALID,90.3755,VALID,0,VALID,19.8018,VALID,37,VALID,0,
2001-08-10, 01:19:00,VALID,919.309,VALID,0,VALID,90.303,VALID,-0.0339617,VALID,19.7954,VALID,37,VALID,0,
2001-08-10, 01:20:00,VALID,919.31,VALID,0,VALID,90.3793,VALID,0,VALID,19.818,VALID,37,VALID,0,
2001-08-10, 01:21:00,VALID,919.297,VALID,0,VALID,90.3322,VALID,0,VALID,19.8274,VALID,37,VALID,0,
2001-08-10, 01:22:00,VALID,919.302,VALID,0,VALID,90.2776,VALID,-0.0339617,VALID,19.8471,VALID,37,VALID,0,
2001-08-10, 01:23:00,VALID,919.299,VALID,0,VALID,90.5141,VALID,0,VALID,19.8535,VALID,37,VALID,0,
2001-08-10, 01:24:00,VALID,919.296,VALID,0,VALID,90.5497,VALID,-0.0169808,VALID,19.8565,VALID,37,VALID,0,
2001-08-10, 01:25:00,VALID,919.298,VALID,0,VALID,90.3526,VALID,0,VALID,19.8314,VALID,37,VALID,0.101151,
2001-08-10, 01:26:00,VALID,919.312,VALID,0,VALID,90.5077,VALID,-0.0169808,VALID,19.7469,VALID,37,VALID,0.0696791,
2001-08-10, 01:27:00,VALID,919.318,VALID,0,VALID,90.8663,VALID,0,VALID,19.6503,VALID,37,VALID,0.137336,
2001-08-10, 01:28:00,VALID,919.318,VALID,0,VALID,91.5047,VALID,0,VALID,19.5663,VALID,37,VALID,0.0272382,
2001-08-10, 01:29:00,VALID,919.301,VALID,0,VALID,91.7475,VALID,0,VALID,19.5206,VALID,37,VALID,0,
2001-08-10, 01:30:00,VALID,919.292,VALID,0,VALID,91.7603,VALID,0.0169808,VALID,19.4883,VALID,37,VALID,0,
2001-08-10, 01:31:00,VALID,919.275,VALID,0,VALID,91.8086,VALID,0,VALID,19.4853,VALID,37,VALID,0,
2001-08-10, 01:32:00,VALID,919.261,VALID,0,VALID,91.9523,VALID,-0.0339617,VALID,19.4786,VALID,37,VALID,0.00570101,
2001-08-10, 01:33:00,VALID,919.251,VALID,0,VALID,91.8022,VALID,0,VALID,19.4763,VALID,37,VALID,0.0696791,
2001-08-10, 01:34:00,VALID,919.244,VALID,0,VALID,92.0489,VALID,-0.0339617,VALID,19.4396,VALID,351,VALID,0.274586,
2001-08-10, 01:35:00,VALID,919.254,VALID,0,VALID,92.4329,VALID,0,VALID,19.4786,VALID,328,VALID,0.174805,
2001-08-10, 01:36:00,VALID,919.243,VALID,0,VALID,92.0133,VALID,0,VALID,19.4915,VALID,328,VALID,0,
2001-08-10, 01:37:00,VALID,919.215,VALID,0,VALID,92.143,VALID,-0.0339617,VALID,19.4699,VALID,328,VALID,0,
2001-08-10, 01:38:00,VALID,919.191,VALID,0,VALID,92.391,VALID,-0.0169808,VALID,19.4634,VALID,328,VALID,0,
2001-08-10, 01:39:00,VALID,919.16,VALID,0,VALID,92.2803,VALID,0,VALID,19.4401,VALID,328,VALID,0,
2001-08-10, 01:40:00,VALID,919.146,VALID,0,VALID,92.4139,VALID,0,VALID,19.408,VALID,328,VALID,0,
2001-08-10, 01:41:00,VALID,919.138,VALID,0,VALID,92.714,VALID,-0.0339617,VALID,19.4113,VALID,326,VALID,0,
2001-08-10, 01:42:00,VALID,919.142,VALID,0,VALID,92.63,VALID,-0.0339617,VALID,19.3986,VALID,326,VALID,0,
2001-08-10, 01:43:00,VALID,919.134,VALID,0,VALID,92.5843,VALID,0,VALID,19.3596,VALID,343,VALID,0,
2001-08-10, 01:44:00,VALID,919.105,VALID,0,VALID,92.8487,VALID,-0.0849042,VALID,19.3124,VALID,18,VALID,0.463542,
2001-08-10, 01:45:00,VALID,919.076,VALID,0,VALID,93.2048,VALID,-0.118866,VALID,19.2935,VALID,32,VALID,0.803735,
2001-08-10, 01:46:00,VALID,919.078,VALID,0,VALID,93.5748,VALID,-0.101885,VALID,19.2863,VALID,39,VALID,0.755068,
2001-08-10, 01:47:00,VALID,919.076,VALID,0,VALID,93.2506,VALID,-0.101885,VALID,19.2666,VALID,38,VALID,0.406867,
2001-08-10, 01:48:00,VALID,919.076,VALID,0,VALID,93.2989,VALID,-0.118866,VALID,19.2738,VALID,38,VALID,0,
2001-08-10, 01:49:00,VALID,919.081,VALID,0,VALID,93.337,VALID,-0.118866,VALID,19.2579,VALID,38,VALID,0.0167683,
2001-08-10, 01:50:00,VALID,919.093,VALID,0,VALID,93.4973,VALID,-0.101885,VALID,19.2443,VALID,38,VALID,0,
2001-08-10, 01:51:00,VALID,919.094,VALID,0,VALID,93.5965,VALID,-0.101885,VALID,19.2482,VALID,38,VALID,0.0407072,
2001-08-10, 01:52:00,VALID,919.079,VALID,0,VALID,93.7274,VALID,-0.101885,VALID,19.2743,VALID,28,VALID,0.062283,
2001-08-10, 01:53:00,VALID,919.088,VALID,0,VALID,93.5558,VALID,-0.118866,VALID,19.2768,VALID,24,VALID,0.441723,
2001-08-10, 01:54:00,VALID,919.071,VALID,0,VALID,93.4846,VALID,-0.118866,VALID,19.3002,VALID,23,VALID,0,
2001-08-10, 01:55:00,VALID,919.073,VALID,0,VALID,93.4261,VALID,-0.152827,VALID,19.3325,VALID,23,VALID,0,
2001-08-10, 01:56:00,VALID,919.05,VALID,0,VALID,93.2175,VALID,-0.152827,VALID,19.329,VALID,24,VALID,0,
2001-08-10, 01:57:00,VALID,919.033,VALID,0,VALID,93.112,VALID,-0.101885,VALID,19.3422,VALID,159,VALID,0.474095,
2001-08-10, 01:58:00,VALID,919.034,VALID,0,VALID,93.2264,VALID,-0.135847,VALID,19.3518,VALID,191,VALID,0.253801,
2001-08-10, 01:59:00,VALID,919.032,VALID,0,VALID,93.2213,VALID,-0.0169808,VALID,19.3668,VALID,191,VALID,0.0169922,
2001-08-10, 02:00:00,VALID,919.035,VALID,0,VALID,92.9721,VALID,0,VALID,19.3534,VALID,191,VALID,0.0382401,
2001-08-10, 02:01:00,VALID,919.011,VALID,0,VALID,93.0535,VALID,0,VALID,19.3404,VALID,191,VALID,0,
2001-08-10, 02:02:00,VALID,918.997,VALID,0,VALID,93.0039,VALID,0,VALID,19.3568,VALID,191,VALID,0,
2001-08-10, 02:03:00,VALID,918.984,VALID,0,VALID,92.925,VALID,0,VALID,19.3534,VALID,191,VALID,0,
2001-08-10, 02:04:00,VALID,918.942,VALID,0,VALID,92.4673,VALID,0,VALID,19.3866,VALID,191,VALID,0,
2001-08-10, 02:05:00,VALID,918.936,VALID,0,VALID,91.9434,VALID,0,VALID,19.3857,VALID,191,VALID,0,
2001-08-10, 02:06:00,VALID,918.93,VALID,0,VALID,91.5314,VALID,0,VALID,19.3342,VALID,79,VALID,0.306891,
2001-08-10, 02:07:00,VALID,918.915,VALID,0,VALID,92.2524,VALID,-0.0169808,VALID,19.2694,VALID,35,VALID,0.48787,
2001-08-10, 02:08:00,VALID,918.907,VALID,0,VALID,92.4253,VALID,-0.0169808,VALID,19.2209,VALID,48,VALID,0.565173,
2001-08-10, 02:09:00,VALID,918.9,VALID,0,VALID,92.7814,VALID,0.0169808,VALID,19.1884,VALID,57,VALID,0.330664,
2001-08-10, 02:10:00,VALID,918.89,VALID,0,VALID,92.5423,VALID,0,VALID,19.2207,VALID,57,VALID,0.227385,
2001-08-10, 02:11:00,VALID,918.874,VALID,0,VALID,91.9294,VALID,0,VALID,19.2729,VALID,63,VALID,0.515214,
2001-08-10, 02:12:00,VALID,918.886,VALID,0,VALID,91.4894,VALID,-0.0169808,VALID,19.3151,VALID,59,VALID,0.322846,
2001-08-10, 02:13:00,VALID,918.88,VALID,0,VALID,91.1562,VALID,-0.0339617,VALID,19.3832,VALID,53,VALID,0.0592448,
2001-08-10, 02:14:00,VALID,918.897,VALID,0,VALID,90.9693,VALID,0,VALID,19.3981,VALID,53,VALID,0,
2001-08-10, 02:15:00,VALID,918.903,VALID,0,VALID,90.9185,VALID,0,VALID,19.4252,VALID,46,VALID,0.209413,
2001-08-10, 02:16:00,VALID,918.908,VALID,0,VALID,90.9808,VALID,0,VALID,19.4018,VALID,45,VALID,0.222128,
2001-08-10, 02:17:00,VALID,918.896,VALID,0,VALID,91.0532,VALID,0,VALID,19.3633,VALID,45,VALID,0.0234375,
2001-08-10, 02:18:00,VALID,918.902,VALID,0,VALID,91.155,VALID,-0.0169808,VALID,19.3114,VALID,16,VALID,0.643709,
2001-08-10, 02:19:00,VALID,918.905,VALID,0,VALID,91.2987,VALID,-0.0169808,VALID,19.2724,VALID,2,VALID,0.470656,
2001-08-10, 02:20:00,VALID,918.915,VALID,0,VALID,91.422,VALID,0,VALID,19.2276,VALID,2,VALID,0.323602,
2001-08-10, 02:21:00,VALID,918.884,VALID,0,VALID,91.9548,VALID,0.0169808,VALID,19.211,VALID,2,VALID,0.254523,
2001-08-10, 02:22:00,VALID,918.867,VALID,0,VALID,91.6242,VALID,0,VALID,19.3022,VALID,10,VALID,0.344835,
2001-08-10, 02:23:00,VALID,918.854,VALID,0,VALID,91.2987,VALID,0,VALID,19.3245,VALID,14,VALID,0.155405,
2001-08-10, 02:24:00,VALID,918.841,VALID,0,VALID,91.2147,VALID,-0.0169808,VALID,19.3218,VALID,14,VALID,0,
2001-08-10, 02:25:00,VALID,918.832,VALID,0,VALID,91.2592,VALID,0,VALID,19.3183,VALID,14,VALID,0,
2001-08-10, 02:26:00,VALID,918.827,VALID,0,VALID,91.2872,VALID,-0.0169808,VALID,19.3181,VALID,14,VALID,0,
2001-08-10, 02:27:00,VALID,918.833,VALID,0,VALID,91.2847,VALID,0,VALID,19.3216,VALID,13,VALID,0,
2001-08-10, 02:28:00,VALID,918.82,VALID,0,VALID,91.1588,VALID,0,VALID,19.3144,VALID,344,VALID,0.236486,
2001-08-10, 02:29:00,VALID,918.797,VALID,0,VALID,90.8307,VALID,0,VALID,19.3633,VALID,21,VALID,0.376953,
2001-08-10, 02:30:00,VALID,918.802,VALID,0,VALID,90.6145,VALID,0,VALID,19.3568,VALID,23,VALID,0.640625,
2001-08-10, 02:31:00,VALID,918.788,VALID,0,VALID,90.9566,VALID,0,VALID,19.2828,VALID,23,VALID,0.730903,
2001-08-10, 02:32:00,VALID,918.785,VALID,0,VALID,91.3928,VALID,0,VALID,19.1951,VALID,12,VALID,0.856841,
2001-08-10, 02:33:00,VALID,918.76,VALID,0,VALID,91.1156,VALID,0,VALID,19.2078,VALID,7,VALID,0.6856,
2001-08-10, 02:34:00,VALID,918.75,VALID,0,VALID,90.8396,VALID,0,VALID,19.2436,VALID,6,VALID,0.3125,
2001-08-10, 02:35:00,VALID,918.737,VALID,0,VALID,90.771,VALID,0,VALID,19.2759,VALID,6,VALID,0.0421875,
2001-08-10, 02:36:00,VALID,918.724,VALID,0,VALID,90.7315,VALID,0,VALID,19.3278,VALID,6,VALID,0,
2001-08-10, 02:37:00,VALID,918.711,VALID,0,VALID,90.7404,VALID,0,VALID,19.3409,VALID,6,VALID,0.127404,
2001-08-10, 02:38:00,VALID,918.686,VALID,0,VALID,90.6921,VALID,0,VALID,19.3442,VALID,6,VALID,0.138775,
2001-08-10, 02:39:00,VALID,918.682,VALID,0,VALID,90.7697,VALID,-0.0169808,VALID,19.3576,VALID,359,VALID,0.242578,
2001-08-10, 02:40:00,VALID,918.653,VALID,0,VALID,90.4518,VALID,0,VALID,19.4219,VALID,4,VALID,0.101357,
2001-08-10, 02:41:00,VALID,918.624,VALID,0,VALID,90.1835,VALID,0,VALID,19.4083,VALID,30,VALID,0.36287,
2001-08-10, 02:42:00,VALID,918.604,VALID,0,VALID,90.3361,VALID,0,VALID,19.3439,VALID,30,VALID,0.157728,
2001-08-10, 02:43:00,VALID,918.578,VALID,0,VALID,90.5332,VALID,0,VALID,19.3059,VALID,30,VALID,0.188368,
2001-08-10, 02:44:00,VALID,918.549,VALID,0,VALID,90.7264,VALID,-0.0169808,VALID,19.2669,VALID,27,VALID,0.265408,
2001-08-10, 02:45:00,VALID,918.534,VALID,0,VALID,90.7277,VALID,0.0169808,VALID,19.247,VALID,16,VALID,0.466844,
2001-08-10, 02:46:00,VALID,918.519,VALID,0,VALID,90.7175,VALID,0,VALID,19.2371,VALID,15,VALID,0.47065,
2001-08-10, 02:47:00,VALID,918.507,VALID,0,VALID,90.8396,VALID,0.0169808,VALID,19.215,VALID,23,VALID,0.305715,
2001-08-10, 02:48:00,VALID,918.509,VALID,0,VALID,90.9897,VALID,0,VALID,19.1628,VALID,26,VALID,0.384457,
2001-08-10, 02:49:00,VALID,918.521,VALID,0,VALID,91.2376,VALID,0,VALID,19.1337,VALID,40,VALID,0.516387,
2001-08-10, 02:50:00,VALID,918.517,VALID,0,VALID,91.408,VALID,0,VALID,19.1215,VALID,46,VALID,0.533923,
2001-08-10, 02:51:00,VALID,918.53,VALID,0,VALID,91.5199,VALID,-0.0169808,VALID,19.1079,VALID,46,VALID,0.447574,
2001-08-10, 02:52:00,VALID,918.542,VALID,0,VALID,91.4233,VALID,-0.0169808,VALID,19.1052,VALID,46,VALID,0.516927,
2001-08-10, 02:53:00,VALID,918.547,VALID,0,VALID,91.436,VALID,0.0169808,VALID,19.1049,VALID,46,VALID,0.273438,
2001-08-10, 02:54:00,VALID,918.553,VALID,0,VALID,91.5721,VALID,0,VALID,19.0957,VALID,30,VALID,0.4125,
2001-08-10, 02:55:00,VALID,918.548,VALID,0,VALID,91.5161,VALID,0,VALID,19.0952,VALID,24,VALID,0.552426,
2001-08-10, 02:56:00,VALID,918.539,VALID,0,VALID,91.6445,VALID,0,VALID,19.0694,VALID,20,VALID,1.00359,
2001-08-10, 02:57:00,VALID,918.518,VALID,0,VALID,91.9332,VALID,0,VALID,19.0403,VALID,16,VALID,0.86287,
2001-08-10, 02:58:00,VALID,918.512,VALID,0,VALID,91.9726,VALID,-0.0169808,VALID,19.0535,VALID,13,VALID,0.920186,
2001-08-10, 02:59:00,VALID,918.502,VALID,0,VALID,91.6929,VALID,-0.0509425,VALID,19.0766,VALID,15,VALID,1.06816,
2001-08-10, 03:00:00,VALID,918.496,VALID,0,VALID,91.4538,VALID,-0.0849042,VALID,19.1188,VALID,19,VALID,0.856291,
2001-08-10, 03:01:00,VALID,918.493,VALID,0,VALID,91.4424,VALID,-0.0679233,VALID,19.089,VALID,28,VALID,0.903212,
2001-08-10, 03:02:00,VALID,918.502,VALID,0,VALID,91.6115,VALID,-0.0849042,VALID,19.0666,VALID,28,VALID,0.69848,
2001-08-10, 03:03:00,VALID,918.498,VALID,0,VALID,91.8569,VALID,-0.0849042,VALID,19.0214,VALID,5,VALID,0.514569,
2001-08-10, 03:04:00,VALID,918.5,VALID,0,VALID,91.8989,VALID,-0.0679233,VALID,19.0376,VALID,360,VALID,0.428539,
2001-08-10, 03:05:00,VALID,918.491,VALID,0,VALID,91.8315,VALID,-0.0849042,VALID,19.0607,VALID,4,VALID,0.329688,
2001-08-10, 03:06:00,VALID,918.47,VALID,0,VALID,91.7946,VALID,-0.0679233,VALID,19.0962,VALID,3,VALID,0.252604,
2001-08-10, 03:07:00,VALID,918.485,VALID,0,VALID,91.6763,VALID,-0.0509425,VALID,19.1248,VALID,346,VALID,0.449219,
2001-08-10, 03:08:00,VALID,918.468,VALID,0,VALID,91.4246,VALID,0,VALID,19.1864,VALID,351,VALID,0.306127,
2001-08-10, 03:09:00,VALID,918.46,VALID,0,VALID,91.2809,VALID,-0.0509425,VALID,19.2053,VALID,17,VALID,0.355469,
2001-08-10, 03:10:00,VALID,918.454,VALID,0,VALID,91.2097,VALID,-0.0339617,VALID,19.212,VALID,22,VALID,0.362664,
2001-08-10, 03:11:00,VALID,918.457,VALID,0,VALID,91.305,VALID,-0.0339617,VALID,19.2214,VALID,33,VALID,0.392681,
2001-08-10, 03:12:00,VALID,918.457,VALID,0,VALID,91.2313,VALID,-0.0339617,VALID,19.2639,VALID,43,VALID,0.27935,
2001-08-10, 03:13:00,VALID,918.452,VALID,0,VALID,91.0698,VALID,-0.0509425,VALID,19.3064,VALID,43,VALID,0.25217,
2001-08-10, 03:14:00,VALID,918.458,VALID,0,VALID,90.8918,VALID,-0.0339617,VALID,19.328,VALID,43,VALID,0.0117188,
2001-08-10, 03:15:00,VALID,918.476,VALID,0,VALID,90.8867,VALID,-0.0509425,VALID,19.3601,VALID,43,VALID,0,
2001-08-10, 03:16:00,VALID,918.469,VALID,0,VALID,90.8167,VALID,-0.0169808,VALID,19.3899,VALID,43,VALID,0.00464527,
2001-08-10, 03:17:00,VALID,918.475,VALID,0,VALID,90.5789,VALID,-0.0509425,VALID,19.4162,VALID,58,VALID,0.44778,
2001-08-10, 03:18:00,VALID,918.468,VALID,0,VALID,90.6056,VALID,-0.0169808,VALID,19.3996,VALID,60,VALID,0.131373,
2001-08-10, 03:19:00,VALID,918.487,VALID,0,VALID,90.7264,VALID,-0.0509425,VALID,19.3899,VALID,46,VALID,0.0903201,
2001-08-10, 03:20:00,VALID,918.498,VALID,0,VALID,90.771,VALID,-0.0339617,VALID,19.3963,VALID,116,VALID,0.24815,
2001-08-10, 03:21:00,VALID,918.513,VALID,0,VALID,90.715,VALID,-0.0509425,VALID,19.3929,VALID,173,VALID,0.260074,
2001-08-10, 03:22:00,VALID,918.509,VALID,0,VALID,90.7659,VALID,-0.0849042,VALID,19.4194,VALID,170,VALID,0.319878,
2001-08-10, 03:23:00,VALID,918.522,VALID,0,VALID,90.6603,VALID,-0.0509425,VALID,19.4033,VALID,169,VALID,0.0415963,
2001-08-10, 03:24:00,VALID,918.531,VALID,0,VALID,90.8129,VALID,-0.0509425,VALID,19.3862,VALID,169,VALID,0,
2001-08-10, 03:25:00,VALID,918.54,VALID,0,VALID,90.7798,VALID,-0.0509425,VALID,19.3864,VALID,159,VALID,0.0676398,
2001-08-10, 03:26:00,VALID,918.538,VALID,0,VALID,90.8472,VALID,-0.0339617,VALID,19.3896,VALID,106,VALID,0.078125,
2001-08-10, 03:27:00,VALID,918.534,VALID,0,VALID,91.1435,VALID,-0.0509425,VALID,19.4189,VALID,27,VALID,0.529811,
2001-08-10, 03:28:00,VALID,918.52,VALID,0,VALID,90.7303,VALID,-0.0509425,VALID,19.5288,VALID,328,VALID,0.191934,
2001-08-10, 03:29:00,VALID,918.521,VALID,0,VALID,90.0779,VALID,-0.0509425,VALID,19.5777,VALID,311,VALID,0.219727,
2001-08-10, 03:30:00,VALID,918.522,VALID,0,VALID,90.1568,VALID,-0.0679233,VALID,19.6001,VALID,332,VALID,0.326275,
2001-08-10, 03:31:00,VALID,918.519,VALID,0,VALID,89.8541,VALID,-0.0339617,VALID,19.6132,VALID,27,VALID,0.74783,
2001-08-10, 03:32:00,VALID,918.518,VALID,0,VALID,90.1529,VALID,-0.0339617,VALID,19.5837,VALID,28,VALID,0.83636,
2001-08-10, 03:33:00,VALID,918.509,VALID,0,VALID,90.3094,VALID,-0.0849042,VALID,19.5931,VALID,28,VALID,0.751689,
2001-08-10, 03:34:00,VALID,918.527,VALID,0,VALID,90.1466,VALID,-0.0679233,VALID,19.6001,VALID,360,VALID,0.695772,
2001-08-10, 03:35:00,VALID,918.533,VALID,0,VALID,90.4111,VALID,-0.0849042,VALID,19.6711,VALID,320,VALID,0.582617,
2001-08-10, 03:36:00,VALID,918.536,VALID,0,VALID,89.9991,VALID,-0.0679233,VALID,19.7417,VALID,316,VALID,0.110377,
2001-08-10, 03:37:00,VALID,918.535,VALID,0,VALID,89.5833,VALID,-0.0509425,VALID,19.7484,VALID,8,VALID,0.185238,
2001-08-10, 03:38:00,VALID,918.533,VALID,0,VALID,89.9279,VALID,-0.0679233,VALID,19.7348,VALID,2,VALID,0.342928,
2001-08-10, 03:39:00,VALID,918.528,VALID,0,VALID,89.8172,VALID,-0.0169808,VALID,19.7517,VALID,3,VALID,0.597852,
2001-08-10, 03:40:00,VALID,918.512,VALID,0,VALID,89.9202,VALID,-0.0679233,VALID,19.7226,VALID,10,VALID,0.622944,